Total_Precipitation_Accumulation
0.01 0.05 0.11 0.28 0.86 1.10 0.84 0.50 0.41 0.33 0.33 0.28 0.29 0.29 0.35 0.51 0.74 1.08 0.50 0.15 0.05 0.03 0.04 0.13 0.24 0.22 0.17 0.16 0.17 0.20 0.20 0.21 0.20 0.20 0.21 0.21 0.19 0.15 0.15 0.18 0.21 0.27 0.29 0.29 0.36 0.37 0.32 0.35 0.41
0.03 0.06 0.14 0.44 0.87 0.85 0.60 0.44 0.36 0.26 0.28 0.33 0.46 0.45 0.37 0.45 0.45 0.38 0.27 0.18 0.07 0.04 0.04 0.06 0.15 0.18 0.17 0.16 0.16 0.19 0.18 0.17 0.16 0.16 0.18 0.19 0.19 0.16 0.16 0.19 0.23 0.27 0.28 0.29 0.35 0.33 0.31 0.31 0.37
0.05 0.08 0.18 0.49 0.58 0.43 0.34 0.23 0.23 0.28 0.36 0.45 0.51 0.52 0.54 0.52 0.41 0.35 0.28 0.17 0.13 0.09 0.06 0.09 0.12 0.14 0.16 0.17 0.17 0.19 0.19 0.17 0.15 0.15 0.17 0.18 0.17 0.18 0.18 0.21 0.25 0.30 0.32 0.31 0.30 0.29 0.33 0.33 0.36
0.05 0.12 0.25 0.37 0.25 0.13 0.12 0.14 0.22 0.34 0.53 0.76 0.77 0.70 0.63 0.43 0.34 0.30 0.32 0.24 0.20 0.12 0.08 0.11 0.15 0.13 0.14 0.16 0.17 0.18 0.17 0.16 0.16 0.16 0.17 0.18 0.18 0.19 0.20 0.20 0.26 0.33 0.38 0.36 0.34 0.34 0.34 0.34 0.36
0.04 0.17 0.33 0.29 0.13 0.09 0.10 0.15 0.26 0.40 0.58 0.77 0.82 0.85 0.81 0.53 0.36 0.34 0.31 0.30 0.24 0.17 0.11 0.11 0.19 0.18 0.17 0.17 0.20 0.20 0.17 0.16 0.16 0.16 0.19 0.21 0.21 0.22 0.23 0.24 0.29 0.33 0.36 0.35 0.35 0.36 0.34 0.34 0.35
0.04 0.16 0.21 0.18 0.10 0.07 0.11 0.17 0.27 0.40 0.59 0.77 1.02 1.09 0.95 0.69 0.61 0.54 0.41 0.49 0.37 0.27 0.18 0.19 0.26 0.27 0.24 0.24 0.26 0.25 0.21 0.19 0.20 0.20 0.23 0.24 0.23 0.24 0.26 0.30 0.33 0.34 0.36 0.35 0.34 0.34 0.32 0.32 0.39
0.02 0.07 0.11 0.11 0.08 0.07 0.10 0.15 0.26 0.42 0.59 0.85 1.14 1.25 1.02 0.81 0.73 0.67 0.61 0.68 0.69 0.53 0.40 0.35 0.33 0.32 0.30 0.33 0.34 0.31 0.27 0.25 0.26 0.27 0.25 0.24 0.24 0.26 0.29 0.37 0.37 0.37 0.39 0.38 0.37 0.35 0.36 0.40 0.45
0.01 0.03 0.07 0.06 0.05 0.07 0.12 0.16 0.30 0.51 0.69 0.92 1.12 1.25 1.29 0.94 0.78 0.87 1.04 1.19 1.28 1.13 0.89 0.66 0.46 0.46 0.38 0.35 0.37 0.37 0.31 0.30 0.30 0.30 0.28 0.30 0.34 0.39 0.46 0.49 0.45 0.47 0.50 0.53 0.54 0.52 0.52 0.59 0.65
0.01 0.03 0.05 0.03 0.04 0.11 0.14 0.18 0.26 0.37 0.57 0.82 1.01 1.07 0.96 0.89 1.04 1.25 1.59 1.63 1.45 1.47 1.28 1.15 0.91 0.66 0.62 0.54 0.46 0.54 0.51 0.50 0.53 0.60 0.56 0.62 0.81 0.84 0.92 0.79 0.74 0.77 0.84 0.89 0.95 0.96 0.97 0.95 0.85
0.00 0.02 0.03 0.01 0.02 0.05 0.12 0.17 0.26 0.39 0.80 1.39 1.39 1.03 0.80 0.98 1.23 1.42 1.72 1.94 1.53 1.49 1.32 1.32 1.25 0.94 0.81 0.74 0.89 1.10 1.01 1.03 1.05 1.22 1.09 1.29 1.39 1.22 0.88 0.93 1.05 1.16 1.41 1.50 1.58 1.64 1.58 1.44 1.25
0.00 0.00 0.01 0.01 0.01 0.01 0.04 0.11 0.21 0.44 0.89 1.60 1.77 1.32 1.11 1.22 1.57 1.58 1.81 1.99 1.90 1.72 1.59 1.32 1.41 1.22 1.14 1.21 1.27 1.38 1.46 1.47 1.44 1.50 1.51 1.70 1.59 1.34 1.19 1.37 1.64 1.79 1.95 2.11 2.24 2.25 1.97 1.97 2.08
0.00 0.00 0.00 0.01 0.01 0.01 0.09 0.15 0.25 0.33 0.75 1.10 1.09 0.99 1.15 1.37 1.68 1.87 1.91 2.12 2.16 2.00 1.90 1.75 1.73 1.69 1.63 1.60 1.50 1.37 1.24 1.26 1.39 1.51 1.56 1.74 1.78 1.80 1.76 1.85 1.91 2.06 2.36 2.68 2.67 2.72 2.62 2.70 2.56
0.00 0.00 0.00 0.02 0.03 0.04 0.10 0.13 0.24 0.39 0.52 0.64 0.62 0.80 1.23 1.52 1.90 2.20 2.52 2.71 2.76 2.69 2.53 2.50 2.55 2.30 2.06 1.90 1.56 1.27 1.14 1.05 1.14 1.25 1.34 1.41 1.65 1.84 1.87 1.72 1.74 1.74 1.97 2.35 2.76 2.80 3.03 3.10 2.82
0.00 0.00 0.01 0.03 0.04 0.05 0.08 0.12 0.27 0.47 0.49 0.61 0.76 0.99 1.37 1.82 2.20 2.44 3.17 3.52 3.74 3.67 3.47 3.26 3.27 2.74 2.39 2.09 1.67 1.41 1.18 1.15 1.08 1.02 1.07 1.26 1.44 1.63 1.61 1.59 1.70 1.77 1.75 1.90 2.31 2.55 2.83 2.84 2.56
0.01 0.03 0.06 0.07 0.05 0.06 0.09 0.23 0.41 0.54 0.73 0.77 0.95 1.17 1.50 2.07 2.52 2.97 3.50 4.22 4.63 4.79 4.38 3.74 3.44 3.08 2.75 2.44 1.95 1.53 1.31 1.10 1.07 1.00 0.99 1.06 1.16 1.33 1.35 1.42 1.40 1.45 1.46 1.49 1.65 1.89 2.12 2.11 2.03
0.02 0.09 0.18 0.11 0.07 0.08 0.13 0.49 0.66 0.56 0.85 1.20 1.14 1.42 1.81 2.32 2.75 3.38 4.10 4.92 5.43 5.59 4.97 4.18 3.48 3.46 3.24 2.86 2.23 1.70 1.37 1.16 1.01 0.93 0.84 0.82 0.86 0.86 0.91 0.96 0.95 0.93 0.89 0.97 1.17 1.29 1.46 1.67 1.83
0.03 0.07 0.15 0.18 0.12 0.10 0.19 0.60 0.77 0.57 0.72 1.03 1.27 1.51 1.94 2.30 2.60 3.20 3.86 4.68 5.27 5.78 5.55 4.85 4.56 4.31 3.63 2.83 2.17 1.71 1.40 1.21 1.04 0.95 0.82 0.77 0.70 0.66 0.72 0.78 0.83 0.65 0.62 0.67 0.69 0.91 1.07 1.29 1.41
0.02 0.04 0.10 0.21 0.17 0.18 0.26 0.46 0.72 0.75 0.92 1.14 1.29 1.44 1.72 1.88 2.12 2.63 3.18 3.67 4.26 4.75 4.64 4.51 4.53 4.02 3.37 2.67 2.15 1.77 1.47 1.21 1.03 0.92 0.86 0.78 0.72 0.64 0.71 0.65 0.61 0.51 0.56 0.65 0.74 0.91 0.91 0.94 1.04
0.02 0.04 0.08 0.15 0.16 0.23 0.36 0.48 0.68 0.84 1.06 1.24 1.28 1.24 1.31 1.47 1.75 2.02 2.41 2.83 3.03 3.19 3.29 3.55 3.72 3.39 2.83 2.34 1.80 1.52 1.38 1.17 1.00 0.86 0.75 0.73 0.66 0.70 0.73 0.63 0.67 0.58 0.57 0.58 0.59 0.71 0.74 0.72 0.72
0.03 0.06 0.11 0.14 0.14 0.19 0.34 0.63 0.80 0.87 0.89 0.98 1.09 1.05 1.07 1.22 1.32 1.44 1.66 1.99 2.07 2.28 2.60 2.93 3.10 2.92 2.36 2.08 1.79 1.59 1.45 1.26 1.12 0.96 0.82 0.68 0.63 0.63 0.60 0.69 0.57 0.57 0.62 0.61 0.61 0.70 0.71 0.63 0.64
0.04 0.05 0.06 0.10 0.11 0.19 0.35 0.86 0.98 0.86 0.78 0.68 0.79 0.84 0.82 0.89 0.98 0.99 1.07 1.25 1.55 2.02 2.16 2.17 2.37 2.48 2.22 2.06 1.93 1.74 1.60 1.35 1.21 1.06 0.88 0.64 0.58 0.60 0.59 0.56 0.55 0.65 0.52 0.64 0.74 0.72 0.71 0.69 0.62
0.04 0.03 0.02 0.02 0.07 0.30 0.42 0.87 0.98 0.85 0.86 0.67 0.62 0.62 0.53 0.49 0.64 0.78 0.81 0.88 1.08 1.40 1.66 1.88 2.07 2.19 2.07 1.92 1.70 1.50 1.27 1.07 0.89 0.85 0.86 0.78 0.68 0.61 0.58 0.51 0.57 0.66 0.57 0.75 0.58 0.61 0.69 0.70 0.61
0.01 0.01 0.01 0.03 0.10 0.27 0.40 0.73 0.95 0.78 0.91 0.67 0.41 0.30 0.25 0.25 0.34 0.49 0.61 0.73 0.76 0.95 1.32 1.70 2.01 2.19 1.99 1.68 1.52 1.46 1.31 1.16 1.01 0.92 1.02 0.91 0.81 0.71 0.62 0.59 0.62 0.57 0.53 0.62 0.64 0.77 0.69 0.67 0.63
0.01 0.02 0.08 0.17 0.29 0.61 0.61 0.59 0.89 0.68 0.47 0.32 0.22 0.17 0.18 0.19 0.23 0.33 0.40 0.49 0.62 0.76 0.98 1.22 1.53 1.76 1.74 1.56 1.45 1.39 1.37 1.30 1.17 0.97 0.89 0.83 0.79 0.77 0.72 0.71 0.72 0.65 0.57 0.58 0.59 0.65 0.68 0.75 0.81
0.02 0.03 0.16 0.37 0.63 0.83 0.49 0.62 0.97 0.56 0.36 0.21 0.17 0.16 0.17 0.14 0.18 0.28 0.35 0.33 0.44 0.54 0.63 0.77 1.05 1.25 1.34 1.36 1.34 1.27 1.35 1.35 1.23 1.08 0.94 0.86 0.74 0.70 0.70 0.70 0.76 0.74 0.72 0.68 0.66 0.63 0.64 0.72 0.79
0.02 0.02 0.06 0.12 0.25 0.41 0.48 1.08 0.91 0.38 0.23 0.19 0.16 0.16 0.15 0.14 0.14 0.22 0.30 0.30 0.31 0.37 0.48 0.62 0.81 0.96 1.02 1.07 1.15 1.15 1.13 1.07 1.12 1.17 1.04 0.91 0.82 0.75 0.70 0.71 0.67 0.67 0.70 0.70 0.79 0.65 0.60 0.64 0.65
0.02 0.02 0.03 0.04 0.06 0.25 0.58 0.76 0.48 0.21 0.18 0.21 0.17 0.14 0.13 0.17 0.21 0.21 0.27 0.28 0.23 0.28 0.36 0.43 0.59 0.72 0.80 0.91 1.02 1.01 1.01 0.96 0.98 0.99 0.94 0.87 0.89 0.86 0.79 0.71 0.69 0.71 0.73 0.74 0.79 0.73 0.73 0.72 0.62
0.03 0.02 0.02 0.02 0.05 0.18 0.43 0.67 0.67 0.38 0.28 0.24 0.20 0.16 0.14 0.19 0.27 0.26 0.25 0.31 0.27 0.26 0.32 0.36 0.46 0.58 0.68 0.78 0.85 0.85 0.96 0.95 1.03 1.00 0.90 0.83 0.79 0.76 0.79 0.76 0.69 0.70 0.75 0.81 0.84 0.84 0.90 0.93 0.84
0.04 0.03 0.03 0.03 0.04 0.09 0.28 0.43 0.45 0.34 0.31 0.24 0.19 0.19 0.18 0.18 0.24 0.24 0.20 0.23 0.23 0.23 0.25 0.28 0.39 0.51 0.60 0.71 0.77 0.84 0.86 0.89 0.96 1.00 0.99 0.93 0.86 0.82 0.80 0.79 0.74 0.71 0.74 0.78 0.81 0.81 0.92 1.05 1.12
0.05 0.06 0.06 0.05 0.05 0.06 0.12 0.20 0.21 0.23 0.28 0.25 0.25 0.26 0.22 0.16 0.15 0.18 0.18 0.18 0.17 0.21 0.22 0.23 0.28 0.36 0.45 0.63 0.76 0.80 0.88 0.93 0.92 0.93 1.06 1.07 1.03 0.98 0.96 0.92 0.90 0.83 0.76 0.79 0.78 0.73 0.78 0.95 1.14